TJS-19

Last updated on Thu Sep 10 2026 00:03:02 GMT+0000 (Coordinated Universal Time)

1 63924U 25097A 26251.84522448 -.00000298 00000+0 00000+0 0 9998 2 63924 3.1540 318.9030 0006104 263.7396 210.7155 1.00272587 4984
UTC large
Height (km)
Speed (km/s)
/
Latitude / Longitude
Inclination (degrees)
Orbital Period (minutes)
Azimuth
Elevation
Range (km)
Doppler Factor

Next 0 passes for location: London (51.5072 / 0.1276)

No passes found over London.
TJS-19